Location: Rumah Sambob
(2.9167°N, 113.9167°E)
Time: 12:29:53
(UTC+00:00)

Meteor 2-6 Rocket - Pass Details

Date: 06 June 2020
Orbit: 806 x 914 km, 81.3° (Epoch: 05 July)

Event Time Altitude Azimuth Distance (km) Brightness Sun altitude
Rises 21:16:12 0° 356° (N) 3,434 7.7 -14.2°
Reaches altitude 10° 21:18:39 10° 357° (N) 2,482 6.9 -13.7°
Maximum altitude 21:24:17 83° 86° (E) 848 4.3 -12.4°
Drops below altitude 10° 21:29:46 10° 173° (S) 2,422 6.4 -11.1°
Sets 21:32:08 0° 173° (S) 3,344 7.1 -10.6°
